Altoona, PA

7:19 AM EST on November 13, 2019 (GMT -0500)
Altoona-Blair County

Weather History for KAOO - October, 2019

Change the Weather History Date:

Wednesday, October 23, 2019

  Actual Average Record
Temperature  
Mean Temperature 51 °F 49 °F  
Max Temperature 59 °F 59 °F 75 °F (1991)
Min Temperature 42 °F 39 °F 26 °F (1980)
Degree Days  
Heating Degree Days 14 16  
Month to date heating degree days 249 298  
Since 1 July heating degree days 291 478  
Cooling Degree Days 0 0  
Month to date cooling degree days 30 0  
Year to date cooling degree days 763 526  
Moisture  
Dew Point 35 °F    
Average Humidity 60    
Maximum Humidity 86    
Minimum Humidity 34    
Precipitation  
Precipitation 0.00 in 0.08 in 1.30 in (1990)
Month to date precipitation 2.46 1.89  
Year to date precipitation 33.36 29.28  
Sea Level Pressure  
Sea Level Pressure 30.06 in    
Wind  
Wind Speed 9 mph (WSW)    
Max Wind Speed 23 mph    
Max Gust Speed 29 mph    
Visibility 10 miles    
Events      
T = Trace of Precipitation, MM = Missing Value Source: NWS Daily Summary

Daily Weather History Graph

Daily Weather History Graph

Search for Another Location

Airport or City:

Astronomy

Oct. 23, 2019 Rise Set
Actual Time 7:32 AM EDT 6:22 PM EDT
Civil Twilight 7:04 AM EDT 6:49 PM EDT
Nautical Twilight 6:32 AM EDT 7:21 PM EDT
Astronomical Twilight 6:01 AM EDT 7:53 PM EDT
Moon 1:47 AM EDT (10/23) 4:12 PM EDT (10/23)
Length of Visible Light 11h 45m
Length of Day
10h 49m
Waning Crescent, 27% of the Moon is Illuminated
Oct 23
Waning Crescent
Oct 27
New
Nov 4
First Quarter
Nov 12
Full
Nov 19
Last Quarter

Hourly Weather History & Observations

Time (EDT) Temp. Windchill Dew Point Humidity Pressure Visibility Wind Dir Wind Speed Gust Speed Precip Events Conditions
1:53 AM 46.9 °F - 42.1 °F 83% 29.89 in 10.0 mi Calm Calm - N/A   Clear
2:53 AM 45.0 °F - 41.0 °F 86% 29.90 in 10.0 mi Calm Calm - N/A   Clear
3:53 AM 45.0 °F - 41.0 °F 86% 29.91 in 10.0 mi Calm Calm - N/A   Clear
4:53 AM 46.9 °F - 39.9 °F 77% 29.94 in 10.0 mi WSW 5.8 mph - N/A   Clear
5:53 AM 46.9 °F - 39.0 °F 74% 29.96 in 10.0 mi West 6.9 mph - N/A   Clear
6:53 AM 46.0 °F 42.5 °F 37.0 °F 71% 29.99 in 10.0 mi SW 6.9 mph - N/A   Clear
7:53 AM 46.0 °F 42.5 °F 37.0 °F 71% 30.00 in 10.0 mi SSW 6.9 mph - N/A   Clear
8:53 AM 48.0 °F - 39.9 °F 74% 30.01 in 10.0 mi SSW 4.6 mph - N/A   Clear
9:53 AM 52.0 °F - 41.0 °F 66% 30.03 in 10.0 mi WSW 10.4 mph - N/A   Clear
10:53 AM 54.0 °F - 37.9 °F 55% 30.04 in 10.0 mi West 12.7 mph 25.3 mph N/A   Clear
11:53 AM 55.9 °F - 37.0 °F 49% 30.04 in 10.0 mi West 16.1 mph - N/A   Partly Cloudy
12:53 PM 57.0 °F - 33.1 °F 40% 30.05 in 10.0 mi West 17.3 mph 26.5 mph N/A   Partly Cloudy
1:53 PM 57.9 °F - 32.0 °F 37% 30.05 in 10.0 mi West 17.3 mph - N/A   Clear
2:53 PM 57.9 °F - 32.0 °F 37% 30.06 in 10.0 mi West 16.1 mph - N/A   Clear
3:53 PM 57.9 °F - 30.0 °F 35% 30.09 in 10.0 mi West 16.1 mph 23.0 mph N/A   Clear
4:53 PM 57.0 °F - 30.0 °F 36% 30.11 in 10.0 mi West 15.0 mph - N/A   Clear
5:53 PM 53.1 °F - 30.9 °F 43% 30.14 in 10.0 mi West 8.1 mph - N/A   Clear
6:53 PM 50.0 °F - 28.9 °F 44% 30.17 in 10.0 mi West 9.2 mph - N/A   Clear
7:53 PM 46.9 °F - 30.0 °F 52% 30.19 in 10.0 mi SSW 8.1 mph - N/A   Clear
8:53 PM 46.9 °F - 30.0 °F 52% 30.20 in 10.0 mi SW 9.2 mph - N/A   Clear
9:53 PM 45.0 °F 40.6 °F 30.9 °F 58% 30.21 in 10.0 mi SSW 8.1 mph - N/A   Clear
10:53 PM 43.0 °F 38.2 °F 30.0 °F 60% 30.23 in 10.0 mi SSW 8.1 mph - N/A   Clear
11:53 PM 43.0 °F 39.5 °F 30.0 °F 60% 30.22 in 10.0 mi West 5.8 mph - N/A   Clear